Regional Weather Roundup
Issued by NWS Cleveland, OH

Home | Current Version | Previous Version | Graphics & Text | Print | Product List | Glossary On
Versions: 1 2 3 4 5 6 7 8 9 10 11 12 13 14 15 16 17 18 19 20 21 22 23 24 25 26 27 28 29 30 31 32 33 34 35 36 37 38 39 40 41 42 43 44 45 46 47 48 49 50
000
ASUS41 KCLE 310402
RWRCLE
OHIO REGIONAL WEATHER ROUNDUP
NATIONAL WEATHER SERVICE CLEVELAND, OH
1100 PM EST FRI JAN 30 2015

NOTE: "FAIR" INDICATES FEW OR NO CLOUDS BELOW 12,000 FEET WITH NO
SIGNIFICANT WEATHER AND/OR OBSTRUCTIONS TO VISIBILITY.

OHZ001>008-015>018-024>027-034-035-043-044-310500-
   NORTHWEST OHIO

CITY           SKY/WX    TMP DP  RH WIND       PRES   REMARKS
DEFIANCE       MOCLDY    19  13  77 CALM      30.42F
FINDLAY        PTCLDY    14   8  77 SW5       30.42R WCI   6
TOLEDO EXPRESS PTCLDY    11   6  81 CALM      30.41S
TOLEDO EXEC    MOCLDY    17   8  67 S5        30.43F WCI  10
LIMA           PTCLDY    17  11  77 SW3       30.41S
$$

OHZ009>014-019>023-028>033-038-089-310500-
   NORTHEAST OHIO

CITY           SKY/WX    TMP DP  RH WIND       PRES   REMARKS
CLE-HOPKINS    MOCLDY     9   5  84 S6        30.45S WCI  -1
CLE-LAKEFRONT  PTCLDY    14   6  70 CALM      30.43F
CUY CO. ARPT   PTCLDY     5   3  92 S5        30.42F WCI  -4
LORAIN-ELYRIA  MOCLDY     6   3  87 S7        30.42F WCI  -6
ASHTABULA      CLOUDY    13   5  70 NW6       30.40S WCI   4
AKRON-CANTON   PTCLDY     7   0  73 CALM      30.39S
WOOSTER        MOCLDY    -1  -5  82 CALM      30.40S
MANSFIELD      PTCLDY     7   4  87 S5        30.38S WCI  -2
YOUNGSTOWN     MOCLDY     9   3  77 W5        30.37S WCI   1
$$

OHZ042-051>053-060>062-070>072-077>081-310500-
  SOUTHWEST OHIO

CITY           SKY/WX    TMP DP  RH WIND       PRES   REMARKS
CINC-COVINGTON CLEAR     23  14  68 CALM      30.43S
CINC-LUNKEN    CLEAR     19  15  84 CALM      30.47F
HAMILTON       CLEAR     16  13  88 CALM      30.46F
DAYTON         CLEAR     19  12  74 CALM      30.42F
WRIGHT-PAT AFB CLEAR     15  12  88 CALM      30.42F
DAYTON GENERAL CLEAR     18  14  84 CALM      30.42F
WILMINGTON     CLEAR     17  13  84 CALM      30.42S
$$

OHZ036-037-039>041-045>050-054>059-063>069-073>076-082>088-310500-
  CENTRAL AND SOUTHEAST OHIO

CITY           SKY/WX    TMP DP  RH WIND       PRES   REMARKS
COLUMBUS       CLEAR     15   9  76 CALM      30.44S
OSU AIRPORT    CLEAR     14  10  84 CALM      30.43S
BOLTON FIELD   NOT AVBL
RICKENBACK AFB NOT AVBL
NEWARK         CLEAR      9   4  80 CALM      30.43S
MARION         CLEAR      8   4  83 S5        30.40F WCI   0
LANCASTER      CLEAR     11   7  84 CALM      30.45R
ZANESVILLE     CLEAR      9   5  84 CALM      30.43R
NEW PHILLY     PTCLDY     5   1  83 CALM      30.44S
$$


USA.gov is the U.S. government's official web portal to all federal, state and local government web resources and services.